Regional Weather Roundup
Issued by NWS

Home | Current Version | Previous Version | Graphics & Text | Print | Product List | Glossary On
Versions: 1 2 3 4 5 6 7 8 9 10 11 12 13 14 15 16 17 18 19 20 21 22 23 24 25 26 27 28 29 30 31 32 33 34 35 36 37 38 39 40 41 42 43 44 45 46 47 48 49 50
000
ASUS43 KLMK 222210
RWRKY
KENTUCKY REGIONAL WEATHER ROUNDUP
NATIONAL WEATHER SERVICE LOUISVILLE KY
600 PM EDT FRI AUG 22 2014

NOTE "FAIR" INDICATES FEW OR NO CLOUDS BELOW 12,000 FEET
WITH NO SIGNIFICANT WEATHER AND/OR OBSTRUCTIONS TO VISIBILITY.

KYZ001>023-026-027-061>063-070>075-222300-
WESTERN AND SOUTH CENTRAL KENTUCKY

CITY           SKY/WX    TMP DP  RH WIND       PRES   REMARKS
PADUCAH        MOSUNNY   93  75  55 SW6       29.96F HX 104
HENDERSON      PTSUNNY   90  75  62 W5        29.94S HX 100
OWENSBORO      PTSUNNY   90  77  65 W3        29.96F HX 103
HOPKINSVILLE   MOSUNNY   91  74  57 SW7       29.98F HX 101
BOWLING GREEN  PTSUNNY   90  71  53 W10       29.98F HX  96
GLASGOW        MOSUNNY   89  71  54 SW9       29.98F HX  95
$$

KYZ024-025-028>034-038-045-046-053-222300-
NORTH CENTRAL KENTUCKY

CITY           SKY/WX    TMP DP  RH WIND       PRES   REMARKS
LOUISVILLE/SDF PTSUNNY   90  76  63 SW9       29.96S HX 101
LOUISVILLE/LOU PTSUNNY   89  76  65 W9        29.96F HX 100
FORT KNOX      PTSUNNY   87  76  69 SW7       29.97F HX  97
$$

KYZ035>037-039>044-047>052-055>060-089>105-222300-
NORTHEAST KENTUCKY

CITY           SKY/WX    TMP DP  RH WIND       PRES   REMARKS
LEXINGTON      MOSUNNY   86  75  69 SW8       29.97F HX  95
COVINGTON      PTSUNNY   85  74  69 W12       29.96F HX  92
FRANKFORT      PTSUNNY   86  75  69 W7        29.97R HX  95
$$

KYZ054-064>069-076>088-106>120-222300-
SOUTHEAST KENTUCKY

CITY           SKY/WX    TMP DP  RH WIND       PRES   REMARKS
JACKSON        PTSUNNY   83  74  74 CALM      30.01F
LONDON         SUNNY     89  71  55 W9        30.03S HX  95
SOMERSET       MOSUNNY   86  70  58 W13       30.02S HX  90
MIDDLESBORO    MOSUNNY   90  72  55 NW6       30.02F HX  96
MONTICELLO     CLEAR     89  74  61 W8        30.03F HX  97
$$




USA.gov is the U.S. government's official web portal to all federal, state and local government web resources and services.